Погода в Южном

Россия / Краснодарский край     45°09′44″N   39°01′21″E
темп.,
°C
ветер,
м/с
пор.,
м/с
влажн.,
%
обл.,
%
осадки,
мм/ч
давл.,
гПа
погр.,
м
18 января, пн
пн1800:00+1ю37100100 0.6 1004212
03:00−5з71094100 1.4 1007409
06:00−7з51194100 0.1 1010325
09:00−6з369799 0.1 1013212
12:00−3зсз478990 0.0 1015652
15:00−2зсз358695 0.1 1015749
18:00−4з1293100 0.0 101821
21:00−5зюз2297100 0.1 101826
19 января, вт
вт1900:00−7юз2395100 0.1 101928
03:00−7юв229099 0.1 101923
06:00−5зюз0197100 1.2 101878
09:00−6зюз489399 1.4 1019298
12:00−4зюз5884100 0.0 1021701
15:00−4зюз578798 0.1 1020648
18:00−6зсз349497 0.1 102297
21:00−9зсз239688 0.1 102322
20 января, ср
ср2000:00−11зюз229564 0.0 102421
03:00−12зюз229047 0.0 102421
06:00−11зюз228921 0.0 102521
09:00−10юз229160 0.0 102635
12:00−6зюз348787 0.0 1025253
15:00−4зюз368749 0.0 1025433
18:00−7юз23840 0.0 102721
21:00−7ююз128127 0.0 102821
21 января, чт
чт2100:00−6юв338496 0.0 102841
03:00−4ююв338596 0.0 102766
06:000ю4798100 1.3 1027246
09:00+1ююз3699100 3.3 1028183
12:00+1ю48100100 0.3 1028232
15:00+1ююз49100100 0.3 1027232
18:00+2ююз4138995 0.0 1028443
21:00+2ююз5148891 0.0 1029549
22 января, пт
пт2200:00+1ююз498711 0.0 1029167
03:00+1ююз413855 0.0 1029328
06:00+1ю498213 0.0 1027160
09:00+1ю47807 0.0 1028134
12:00+2ю41010082 0.0 1027197
15:00+3ю489791 0.0 1025160
18:00+2ю458125 0.0 102582
21:00+1ю458213 0.0 102587